Location: Bothwell
(42.3833°S, 147.0000°E)
Time: 18:51:50
(UTC+11:00)

STARS - Pass Details

Date: 02 October 2022
Orbit: 619 x 636 km, 98.2° (Epoch: 26 November)

Event Time Altitude Azimuth Distance (km) Brightness Sun altitude
Exits shadow 23:22:16 12° 195° (SSW) 1,864 ? -38.8°
Drops below altitude 10° 23:22:39 10° 195° (SSW) 2,025 ? -38.8°
Sets 23:24:52 0° 193° (SSW) 2,939 ? -39.0°
